AEE4SR LGAV-LGSR

Flight info

Callsign AEE4SR
Flight time 0h 31m
Altitude 17000
Route KEA L607 NETIS M601 PEXAN
Aircraft A320/M-SDE3FGHIRWY/LB1

Departure

Time 2026-04-23 19:13
Airport Athens Eleftherios Venizelos International Airport (LGAV)

Arrival

Time 2026-04-23 19:44
Airport Santorini International Airport (LGSR)
Time Latitude Longitude Altitude Speed Heading
2026-04-23 18:31 37.94234 23.95184 304 ft 0 kts 217°
2026-04-23 19:02 37.94239 23.95189 301 ft 3 kts 217°
2026-04-23 19:02 37.94261 23.95210 302 ft 3 kts 217°
2026-04-23 19:02 37.94281 23.95226 302 ft 3 kts 196°
2026-04-23 19:02 37.94301 23.95227 301 ft 3 kts 140°
2026-04-23 19:03 37.94315 23.95206 301 ft 3 kts 127°
2026-04-23 19:03 37.94317 23.95202 301 ft 0 kts 127°
2026-04-23 19:06 37.94316 23.95205 301 ft 1 kts 127°
2026-04-23 19:06 37.94304 23.95225 301 ft 4 kts 127°
2026-04-23 19:06 37.94282 23.95262 301 ft 7 kts 127°
2026-04-23 19:07 37.94249 23.95318 302 ft 9 kts 127°
2026-04-23 19:07 37.94204 23.95393 301 ft 12 kts 127°
2026-04-23 19:07 37.94153 23.95485 300 ft 12 kts 117°
2026-04-23 19:07 37.94110 23.95592 300 ft 15 kts 126°
2026-04-23 19:08 37.94025 23.95637 296 ft 16 kts 208°
2026-04-23 19:08 37.93934 23.95551 298 ft 17 kts 216°
2026-04-23 19:08 37.93832 23.95456 298 ft 18 kts 216°
2026-04-23 19:08 37.93755 23.95385 298 ft 12 kts 216°
2026-04-23 19:09 37.93687 23.95318 302 ft 13 kts 218°
2026-04-23 19:09 37.93608 23.95242 298 ft 15 kts 217°
2026-04-23 19:09 37.93517 23.95156 300 ft 17 kts 216°
2026-04-23 19:09 37.93415 23.95061 301 ft 19 kts 217°
2026-04-23 19:10 37.93301 23.94954 299 ft 22 kts 216°
2026-04-23 19:10 37.93173 23.94837 299 ft 24 kts 215°
2026-04-23 19:10 37.93042 23.94716 300 ft 26 kts 218°
2026-04-23 19:10 37.92898 23.94569 302 ft 27 kts 218°
2026-04-23 19:11 37.92764 23.94441 303 ft 23 kts 217°
2026-04-23 19:11 37.92633 23.94317 303 ft 23 kts 217°
2026-04-23 19:11 37.92544 23.94314 305 ft 12 kts 134°
2026-04-23 19:11 37.92497 23.94393 308 ft 11 kts 126°
2026-04-23 19:12 37.92495 23.94453 308 ft 12 kts 64°
2026-04-23 19:12 37.92611 23.94574 308 ft 33 kts 38°
2026-04-23 19:12 37.92993 23.94936 296 ft 100 kts 36°
2026-04-23 19:12 37.93694 23.95600 280 ft 149 kts 37°
2026-04-23 19:13 37.94571 23.96450 721 ft 160 kts 37°
2026-04-23 19:13 37.95464 23.97303 1407 ft 163 kts 36°
2026-04-23 19:13 37.96379 23.98164 2094 ft 164 kts 35°
2026-04-23 19:13 37.97337 23.99056 2371 ft 186 kts 34°
2026-04-23 19:14 37.98440 24.00089 2651 ft 207 kts 36°
2026-04-23 19:14 37.99642 24.01254 2994 ft 229 kts 36°
2026-04-23 19:14 38.00951 24.02541 3756 ft 236 kts 36°
2026-04-23 19:14 38.02256 24.03814 4699 ft 239 kts 36°
2026-04-23 19:15 38.03575 24.05115 5607 ft 242 kts 37°
2026-04-23 19:15 38.04902 24.06437 6502 ft 245 kts 37°
2026-04-23 19:15 38.06277 24.07781 7283 ft 252 kts 35°
2026-04-23 19:15 38.07696 24.09104 8123 ft 259 kts 35°
2026-04-23 19:16 38.08901 24.10932 8588 ft 282 kts 63°
2026-04-23 19:16 38.09281 24.13393 9367 ft 292 kts 93°
2026-04-23 19:16 38.08649 24.15811 10143 ft 298 kts 124°
2026-04-23 19:17 38.05186 24.19233 10716 ft 341 kts 150°
2026-04-23 19:17 38.03058 24.20762 10997 ft 359 kts 152°
2026-04-23 19:17 38.00846 24.22292 11607 ft 365 kts 153°
2026-04-23 19:17 37.98604 24.23844 12257 ft 370 kts 153°
2026-04-23 19:18 37.96345 24.25435 12943 ft 374 kts 152°
2026-04-23 19:18 37.94073 24.27071 13648 ft 377 kts 152°
2026-04-23 19:18 37.91794 24.28742 14282 ft 380 kts 152°
2026-04-23 19:18 37.89499 24.30440 14877 ft 384 kts 152°
2026-04-23 19:19 37.84846 24.33883 15992 ft 391 kts 153°
2026-04-23 19:19 37.82480 24.35626 16541 ft 395 kts 153°
2026-04-23 19:20 37.77682 24.39139 17017 ft 407 kts 154°
2026-04-23 19:20 37.75173 24.40964 17030 ft 425 kts 154°
2026-04-23 19:20 37.73455 24.42212 17027 ft 436 kts 153°
2026-04-23 19:20 37.70843 24.44119 17019 ft 424 kts 153°
2026-04-23 19:21 37.68347 24.45954 17028 ft 413 kts 153°
2026-04-23 19:21 37.63168 24.49716 17027 ft 441 kts 153°
2026-04-23 19:21 37.60517 24.51680 17008 ft 444 kts 152°
2026-04-23 19:22 37.57883 24.53742 17024 ft 447 kts 151°
2026-04-23 19:22 37.55269 24.55871 17020 ft 448 kts 150°
2026-04-23 19:22 37.50073 24.60197 17016 ft 448 kts 150°
2026-04-23 19:23 37.47468 24.62352 17014 ft 448 kts 150°
2026-04-23 19:23 37.44856 24.64488 17008 ft 448 kts 151°
2026-04-23 19:23 37.42238 24.66605 17008 ft 448 kts 151°
2026-04-23 19:24 37.36993 24.70823 17005 ft 447 kts 151°
2026-04-23 19:24 37.34417 24.72894 17000 ft 428 kts 151°
2026-04-23 19:24 37.29297 24.77010 17009 ft 447 kts 152°
2026-04-23 19:25 37.24041 24.81235 17012 ft 449 kts 152°
2026-04-23 19:25 37.18772 24.85467 17008 ft 449 kts 152°
2026-04-23 19:26 37.13505 24.89682 17006 ft 449 kts 152°
2026-04-23 19:26 37.10868 24.91795 17005 ft 449 kts 152°
2026-04-23 19:27 37.05604 24.96011 16985 ft 449 kts 152°
2026-04-23 19:27 36.97957 25.02131 15157 ft 416 kts 151°
2026-04-23 19:28 36.93365 25.05797 14009 ft 378 kts 151°
2026-04-23 19:28 36.88937 25.09299 12738 ft 374 kts 151°
2026-04-23 19:29 36.86745 25.11026 12113 ft 372 kts 150°
2026-04-23 19:29 36.82393 25.14465 10914 ft 367 kts 150°
2026-04-23 19:30 36.78264 25.17740 10637 ft 338 kts 150°
2026-04-23 19:30 36.76320 25.19287 10513 ft 326 kts 150°
2026-04-23 19:30 36.72615 25.22223 10227 ft 307 kts 151°
2026-04-23 19:31 36.70828 25.23636 9997 ft 302 kts 151°
2026-04-23 19:31 36.69065 25.25028 9847 ft 299 kts 150°
2026-04-23 19:31 36.67307 25.26414 9687 ft 299 kts 150°
2026-04-23 19:31 36.65550 25.27798 9335 ft 299 kts 150°
2026-04-23 19:32 36.63791 25.29181 8937 ft 299 kts 150°
2026-04-23 19:32 36.62036 25.30560 8555 ft 299 kts 150°
2026-04-23 19:32 36.60280 25.31941 8218 ft 297 kts 149°
2026-04-23 19:32 36.58533 25.33317 7860 ft 296 kts 149°
2026-04-23 19:33 36.56793 25.34687 7481 ft 297 kts 149°
2026-04-23 19:33 36.55061 25.36047 7232 ft 292 kts 149°
2026-04-23 19:33 36.51629 25.38743 6541 ft 291 kts 148°
2026-04-23 19:34 36.49919 25.40084 6202 ft 290 kts 148°
2026-04-23 19:34 36.48227 25.41409 5641 ft 286 kts 148°
2026-04-23 19:34 36.44916 25.44001 4710 ft 277 kts 148°
2026-04-23 19:35 36.43288 25.45276 4344 ft 275 kts 148°
2026-04-23 19:35 36.41656 25.46553 3978 ft 278 kts 148°
2026-04-23 19:35 36.40063 25.47908 3615 ft 278 kts 138°
2026-04-23 19:35 36.38778 25.49666 3409 ft 271 kts 123°
2026-04-23 19:36 36.37776 25.51628 3348 ft 269 kts 120°
2026-04-23 19:36 36.36779 25.53589 3283 ft 268 kts 121°
2026-04-23 19:36 36.35784 25.55536 3178 ft 267 kts 120°
2026-04-23 19:36 36.34787 25.57482 3048 ft 267 kts 120°
2026-04-23 19:37 36.33796 25.59411 2935 ft 261 kts 120°
2026-04-23 19:37 36.32856 25.61243 2995 ft 244 kts 120°
2026-04-23 19:37 36.31976 25.62962 3006 ft 228 kts 120°
2026-04-23 19:37 36.31147 25.64560 3009 ft 214 kts 124°
2026-04-23 19:38 36.30039 25.65688 2997 ft 204 kts 155°
2026-04-23 19:38 36.28681 25.66103 3007 ft 201 kts 179°
2026-04-23 19:38 36.27311 25.65866 3008 ft 199 kts 201°
2026-04-23 19:38 36.26121 25.65031 3007 ft 196 kts 224°
2026-04-23 19:39 36.25284 25.63732 3002 ft 193 kts 246°
2026-04-23 19:39 36.24896 25.62171 3009 ft 188 kts 268°
2026-04-23 19:39 36.24975 25.60586 3009 ft 184 kts 288°
2026-04-23 19:39 36.25482 25.59164 3011 ft 179 kts 307°
2026-04-23 19:40 36.26300 25.58096 3005 ft 165 kts 325°
2026-04-23 19:40 36.27265 25.57361 3035 ft 162 kts 331°
2026-04-23 19:40 36.28222 25.56639 3006 ft 161 kts 330°
2026-04-23 19:40 36.29178 25.55931 2832 ft 159 kts 332°
2026-04-23 19:41 36.30135 25.55246 2578 ft 159 kts 332°
2026-04-23 19:41 36.31081 25.54528 2279 ft 160 kts 331°
2026-04-23 19:41 36.32024 25.53793 2002 ft 157 kts 330°
2026-04-23 19:41 36.32911 25.53109 1746 ft 146 kts 330°
2026-04-23 19:42 36.33761 25.52485 1490 ft 138 kts 332°
2026-04-23 19:42 36.34517 25.51801 1309 ft 136 kts 321°
2026-04-23 19:42 36.35215 25.51023 1056 ft 134 kts 321°
2026-04-23 19:42 36.35901 25.50247 840 ft 133 kts 321°
2026-04-23 19:43 36.36656 25.49580 560 ft 131 kts 333°
2026-04-23 19:43 36.37472 25.49115 359 ft 128 kts 337°
2026-04-23 19:43 36.38273 25.48684 226 ft 126 kts 339°
2026-04-23 19:43 36.39108 25.48315 107 ft 128 kts 340°
2026-04-23 19:44 36.39839 25.47959 83 ft 78 kts 339°
2026-04-23 19:44 36.40123 25.47821 91 ft 29 kts 339°
2026-04-23 19:44 36.40298 25.47737 92 ft 17 kts 339°
2026-04-23 19:44 36.40316 25.47680 89 ft 12 kts 250°
2026-04-23 19:45 36.40285 25.47582 91 ft 13 kts 249°
2026-04-23 19:45 36.40267 25.47491 91 ft 8 kts 291°
2026-04-23 19:45 36.40318 25.47460 92 ft 9 kts 337°
2026-04-23 19:45 36.40385 25.47427 90 ft 10 kts 339°
2026-04-23 19:46 36.40389 25.47384 90 ft 3 kts 242°
2026-04-23 19:46 36.40384 25.47371 91 ft 1 kts 249°
2026-04-23 19:46 36.40382 25.47363 91 ft 0 kts 249°